Current Version              Previous Version:    01  02  03  04  05  06  07  08  09  10  11  12  13  14  15  16  17  18  19  20  21  22  23  24  25  26  27  28  29  30  
   31  32  33  34  35  36  37  38  39  40  41  42  43  44  45  46  47  48  49  50  51  52  53  54  55  56  57  58  59  60  

[Printable]
279
ASUS44 KLUB 241510
RWRTX
WEST TEXAS WEATHER ROUNDUP
NATIONAL WEATHER SERVICE LUBBOCK TX
1000 AM CDT FRI OCT 24 2014

NOTE: "FAIR" INDICATES FEW OR NO CLOUDS BELOW 12,000 FEET WITH NO
SIGNIFICANT WEATHER AND/OR OBSTRUCTIONS TO VISIBILITY.

TXZ004-006>008-010-012-014-016-OKZ002-241600-
TEXAS PANHANDLE/OKLAHOMA PANHANDLE

CITY           SKY/WX    TMP DP  RH WIND       PRES   REMARKS
AMARILLO       SUNNY     59  54  83 SW7       30.17R
BORGER         SUNNY     55  52  89 W3        30.14R FOG
CANADIAN       FOG       58  57  99 CALM      30.11S VSB<1/4
DALHART        SUNNY     59  46  62 NW8       30.19R
DUMAS          SUNNY     60  50  68 W7        30.16R
GUYMON         SUNNY     64  53  67 W5        30.12R
HEREFORD       SUNNY     61  56  83 S6        30.19R
PAMPA          SUNNY     62  56  83 W7        30.16R
PERRYTON       SUNNY     60  58  96 SW6       30.12S
$$

TXZ026-029-035-045-048-241600-
SOUTHERN PANHANDLE/SOUTH PLAINS/ROLLING PLAINS

CITY           SKY/WX    TMP DP  RH WIND       PRES   REMARKS
CHILDRESS      SUNNY     65  60  84 W8        30.13R
SEMINOLE       SUNNY     63  60  90 SW7       30.22R
LUBBOCK        SUNNY     63  57  81 SW9       30.19R
PLAINVIEW      SUNNY     61  57  87 W6        30.17R
SNYDER         FOG       59  59  99 SW5       30.19R VSB<1/4
$$

TXZ052-054-060>062-072-078-127-140-154-169-241600-
PERMIAN BASIN/CONCHO VALLEY/BIG COUNTRY/EDWARDS PLATEAU

CITY           SKY/WX    TMP DP  RH WIND       PRES   REMARKS
ABILENE        SUNNY     68  61  78 SW6       30.17R
BIG SPRING     CLOUDY    63  62  94 S6        30.22R
BRADY          SUNNY     72  57  60 S8        30.19R
BROWNWOOD      SUNNY     68  61  77 SW3       30.19R
JUNCTION       SUNNY     63  57  81 CALM      30.20R
MIDLAND        SUNNY     65  60  84 S8        30.19R
ODESSA         SUNNY     66  61  84 S7        30.21R
SAN ANGELO     SUNNY     66  60  81 S7        30.19R
SONORA         SUNNY     63  59  88 CALM      30.25R
SWEETWATER     SUNNY     67  63  85 SW10      30.21S
WINK           CLOUDY    60 N/A N/A SE3       30.19R
$$

TXZ055-058-074-075-080-082-241600-
FAR WEST/SOUTHWEST MOUNTAINS/TRANS PECOS

CITY           SKY/WX    TMP DP  RH WIND       PRES   REMARKS
ALPINE         SUNNY     67  57  69 SW3       30.34R
DRYDEN           N/A     65  64  97 SW8       30.19R
EL PASO        SUNNY     62  51  67 N5        30.26R
FORT STOCKTON  SUNNY     70  58  65 SW12      30.20R
GUADALUPE PASS SUNNY     59  48  67 W12       30.33R
MARFA          SUNNY     61  57  88 CALM      30.34R
PECOS          FOG       57  56  97 CALM      30.20R VSB 1/4
PRESIDIO       FAIR      68  58  70 CALM      30.23R
$$

TXZ014-016-019-021>030-083-241600
TEXAS TECH WEST TEXAS MESONET/TEXAS PANHANDLE/NORTHERN SOUTH PLAINS

CITY           SKY/WX    TMP DP  RH WIND       PRES   REMARKS
ABERNATHY 5ENE   N/A     63  58  84 SW8       30.20R
AMARILLO 9NNE    N/A     60  52  77 W3        30.17R
AMARILLO 7SSE    N/A     60  53  78 W8        30.18R
AMHERST 1NE      N/A     65  57  74 W6        30.20R
BOOTLEG 11WNW    N/A     66  45  46 W8        30.23R
CANADIAN 6E      N/A     57  57  99 NW3       30.10S
CAPROCK CYN SP   N/A     72  56  57 NE6       30.15R
CHILDRESS 2NNE   N/A     69  61  76 SW7       30.12R
CLARENDON 2WSW   N/A     65  57  75 W10       30.13S
DIMMITT 2NE      N/A     61  53  74 SW12      30.18S
FLOYDADA 2NNE    N/A     60  59  95 W6        30.18R
FRIONA 2NE       N/A     59  53  80 SW5       30.21R
GOODLETT 3W      N/A     67  61  79 SW7       30.10R
HART 3N          N/A     61  56  83 SW9       30.19R
HEREFORD 2NW     N/A     59  51  76 SW7       30.19R
MCLEAN 1E        N/A     62  58  87 SW5       30.12R
MEMPHIS 1NE      N/A     62  61  97 S2        30.12R
MULESHOE 2SSW    N/A     59  54  82 W5        30.20R
OLTON 6S         N/A     60  55  83 W9        30.19R
PALO DURO SP     N/A     65  55  69 W6        30.18R
PAMPA 2E         N/A     63  57  79 W5        30.14R
PLAINVIEW 1S     N/A     62  57  85 SW5       30.18R
SILVERTON 7ESE   N/A     64  57  77 W10       30.17R
TULIA 2ENE       N/A     63  57  80 W10       30.17R
TURKEY 2WSW      N/A     66  58  77 SW7       30.13S
UMBARGER 3NNE    N/A     59  53  82 SW6       30.19R
$$

TXZ033>036-039>041-045>048-241600
TEXAS TECH WEST TEXAS MESONET/SOUTH PLAINS

CITY           SKY/WX    TMP DP  RH WIND       PRES   REMARKS
AIKEN 3WSW       N/A     61  57  87 SW7       30.20R
ANDREWS 2NE      N/A     67  59  76 S3        30.21R
ANTON 6SSW       N/A     64  59  85 SW3       30.19R
BROWNFIELD 2S    N/A     63  58  84 SW9       30.20R
DENVR CTY 7WNW   N/A     62  57  86 SW8       30.21R
GAIL 2ESE        N/A     62  59  93 SW5       30.18R
LAMESA 2SE       N/A     60  59  98 SW6       30.21R
LEVELLAND 4S     N/A     66  58  74 SW10      30.19S
LUBBOCK 3WNW     N/A     66  58  76 SW6       30.19S
MORTON 1ENE      N/A     65  56  72 W9        30.20R
ODONNELL 1N      N/A     63  58  84 SW9       30.20R
PLAINS 3N        N/A     64  56  77 SW7       30.22R
RALLS 1SE        N/A     61  60  98 SW6       30.19S
REESE CENTER     N/A     64  59  83 SW7       30.19R
SEMINOLE 2NNE    N/A     64  59  84 SW7       30.21R
SLATON 2NE       N/A     61  58  90 SW7       30.19R
SNYDER 3E        N/A     60  59  98 S6        30.18R
SUNDOWN 8SW      N/A     66  58  75 SW8       30.20R
TAHOKA 3NNE      N/A     64  60  85 SW12      30.19R
WOLFFORTH 6SSW   N/A     65  60  86 SW7       30.20R
$$

TXZ031-032-036>038-042>044-241600-
TEXAS TECH WEST TEXAS MESONET/ROLLING PLAINS

CITY           SKY/WX    TMP DP  RH WIND       PRES   REMARKS
ASPERMONT 3NE    N/A     68  63  84 SW9       30.15S
FLUVANNA 3WNW    N/A     62  59  91 S8        30.19R
GRAHAM 5SSW      N/A     63  59  86 S3        30.19R
GUTHRIE 10WSW    N/A     67  61  81 SW7       30.14R
HASKELL 1NW      N/A     68  60  76 SW9       30.15R
JAYTON 1SSE      N/A     64  61  89 SW7       30.16R
KNOX CITY 3NW    N/A     68  60  77 SW9       30.14S
LK A HENRY 1NW   N/A     66  62  86 SW7       30.17R
NORTHFIELD 1S    N/A     68  61  77 SW5       30.13R
ODELL 4ENE       N/A     70  63  79 S7        30.11S
PADUCAH 10SW     N/A     69  61  76 W6        30.14R
POST 1NE         N/A     68  60  75 E1        30.17S
RRING SPRGS 3N   N/A     67  60  80 SW12      30.15R
SEYMOUR 3NW      N/A     69  61  76 SW10      30.13R
SPUR 1W          N/A     64  61  90 W7        30.15R
WEINERT 2NNE     N/A     69  62  77 SW13      30.14S
WHITE RVR 6NE    N/A     66  60  82 W7        30.17R
$$

TXZ052-054-060>062-072-078-127-140-154-169-241600-
TEXAS TECH WEST TEXAS MESONET/PERMIAN BASIN/
CONCHO VALLEY/BIG COUNTRY/EDWARDS PLATEAU

CITY           SKY/WX    TMP DP  RH WIND       PRES   REMARKS
COYANOSA 2N      N/A     65  59  80 W3        30.20R
JUNCTION 1SSW    N/A     65  58  77 CALM      30.22R
MERTZON 3NNE     N/A     67  61  79 SW7       30.21R
SAN ANGELO 7NW   N/A     64  58  81 SE2       30.19S
STRLNG CT 4WSW   N/A     67  61  79 SE5       30.20S
ST LAWRNCE 5SW   N/A     63  62  97 S8        30.20R
SWEETWATR 11SW   N/A     67  62  81 SW12      30.20S
WALL 1E          N/A     64  61  88 SW3       30.20R
$$

TXZ055-058-074-075-080-082-241600-
TEXAS TECH WEST TEXAS MESONET/FAR WEST/SOUTHWEST MOUNTAINS/TRANS PECOS

CITY           SKY/WX    TMP DP  RH WIND       PRES   REMARKS
PRSMN GAP BBNP   N/A     62  62  99 S2        30.24R
GUADLPE MTN NP   N/A     69  47  45 S5        30.33R
$$